Starlink 31645

operational
NORAD ID: 59264 Int'l Des: 2024-050 Owner: SPXS Country: US Constellation: starlink
LEOCIRCULAR

About Starlink 31645

Description loading...

Live Position

Loading 3D Globe...

Upcoming Passes

Altitude History

Altitude vs Time

uPlot chart will show altitude changes over time

Two-Line Element Set

1 59264U 24050L 25259.47394356 -.00000953 00000-0 -20046-4 0 9996
2 59264 53.1564 270.3294 0001183 95.0391 265.0744 15.30188827 83876
Epoch: Sep 16, 2025 • Age: 20 hours

Current Status

Altitude 480.5 km
Velocity 7.63 km/s
Sub-Earth Point -17.73°S, 141.28°E
Launch Date Mar 19, 2024
Age 1.4 years
Type internet

Technical Details

Classification Payload
Mass 730.00 kg
Dry Mass 700.00 kg
Total Mass 730.00 kg
Length 0.30 m
Diameter 4.10 m
Span 29.00 m
Shape Box + pan
Manufacturer SPXS
Bus Type Starlink V2M
Phase Status In Orbit
Owner/State SPXS/US

Large Constellations

Loading constellations...